Regional Weather Roundup
Issued by NWS

Home | Current Version | Previous Version | Graphics & Text | Print | Product List | Glossary On
Versions: 1 2 3 4 5 6 7 8 9 10 11 12 13 14 15 16 17 18 19 20 21 22 23 24 25 26 27 28 29 30 31 32 33 34 35 36 37 38 39 40 41 42 43 44 45 46 47 48 49 50
189
ASUS45 KCYS 030710
RWRWY

WYOMING REGIONAL WEATHER ROUNDUP
NATIONAL WEATHER SERVICE CHEYENNE WY
1200 AM MST SAT DEC 03 2016

NOTE:  "FAIR" INDICATES FEW OR NO CLOUDS BELOW 12,000 FEET
WITH NO SIGNIFICANT WEATHER AND/OR OBSTRUCTIONS TO VISIBILITY.

WYZ001-030800-
YELLOWSTONE NATIONAL PARK

CITY           SKY/WX    TMP DP  RH WIND       PRES   REMARKS
LK YELLOWSTONE   N/A     11   8  88 CALM      30.10S
W YELLOWSTONE  NOT AVBL

$$
WYZ002>013-054>058-071-098>099-030800-
NORTHERN WYOMING

CITY           SKY/WX    TMP DP  RH WIND       PRES   REMARKS
JACKSON        CLOUDY    16  12  86 SW8       30.16S WCI   5
CODY           FAIR      30   9  41 W21G36    29.96  WCI  17
GREYBULL       FAIR      24  15  68 SE5       30.02F WCI  18
WORLAND        FAIR      23  17  78 SE10      30.01F WCI  12
SHERIDAN       FAIR      19  12  74 CALM      29.96F
BUFFALO        FAIR      21   6  52 W6        29.94F WCI  13
GILLETTE       FAIR      25  17  72 S22G29    29.96F WCI  10
HULETT         FAIR      32  23  69 SW16G24   30.00F WCI  21
NEWCASTLE      FAIR      25  19  80 SE10      30.08F WCI  15

$$
WYZ014>020-022>026-101>103-030800-
CENTRAL WYOMING

CITY           SKY/WX    TMP DP  RH WIND       PRES   REMARKS
BIG PINEY      FAIR       5   1  83 NE7       30.13F WCI  -7
PINEDALE       FAIR       5   1  85 N9        30.13F WCI  -9
DUBOIS         PTSUNNY   18   3  53 N22G30    30.00F WCI   0
LANDER         FAIR      16   5  62 S5        30.01F WCI   9
RIVERTON       FAIR      20   9  62 W13       30.01F WCI   7
CASPER         FAIR      21  14  74 S20       30.03F WCI   6
DOUGLAS        FAIR      14  10  84 CALM      30.06F

$$
WYZ021-027>030-104>119-030800-
SOUTHERN WYOMING

CITY           SKY/WX    TMP DP  RH WIND       PRES   REMARKS
EVANSTON       FAIR      10   5  80 SW9       30.17S WCI  -3
FORT BRIDGER   FAIR      14   8  77 W10       30.19S WCI   1
ROCK SPRINGS   FAIR      13   7  77 SW16      30.14  WCI  -3
DIXON          FLURRIES  15  12  86 SE6       30.18F WCI   7
RAWLINS        FAIR      14   8  77 SW12      30.08F WCI   0
SARATOGA       FAIR       9   7  92 S7        30.11F WCI  -3
LARAMIE        FOG        6   3  87 E3        30.05F VSB 1/4
CHEYENNE       FAIR      22  20  92 SW10      30.08F WCI  11
TORRINGTON     CLOUDY    25  21  85 S7        30.12F WCI  17
PINE BLUFFS    CLOUDY    23  21  93 S5        30.14F WCI  17

$$




USA.gov is the U.S. government's official web portal to all federal, state and local government web resources and services.